Location: Anjeux
(47.8815°N, 6.2076°E)
Time: 18:42:00
(UTC+00:00)

Sich 1 - Pass Details

Date: 05 March 2021
Orbit: 593 x 626 km, 82.5° (Epoch: 15 April)

Event Time Altitude Azimuth Distance (km) Brightness Sun altitude
Rises 05:23:46 0° 339° (NNW) 2,920 6.3 -8.3°
Reaches altitude 10° 05:26:20 10° 326° (NW) 2,005 5.4 -7.8°
Maximum altitude 05:29:53 24° 273° (W) 1,300 4.1 -7.2°
Drops below altitude 10° 05:33:24 10° 219° (SW) 1,980 5.3 -6.6°
Sets 05:35:55 0° 206° (SSW) 2,874 6.2 -6.2°
